STARLINK-3150, 49452

Orbit data source: Space-Track

STARLINK-3150, 49452 is a payload satellite owned by SpaceX/Seattle (US) in LEO that was launched on Sat, 13 Nov 2021 UTC via an FALCON 9 launch vehicle from the Air Force Eastern Test Range (AFETR). Payload-class satellites include a variety of spacecraft equipped with specific instruments for various scientific and technological missions. These include communications satellites like Starlink; space stations such as the ISS; scientific satellites like the Hubble; Earth observation satellites from companies like Planet Labs, Umbra, and HawkEye 360; GPS; miniature CubeSats for education and research; and military/defense satellites.

Loading next visibility...
Identifier
49452, 2021-104AW
Orbit
LEO
Country
Flag of USUS
Related business
Manufacturer
SpaceX/Seattle
Mission
Operational Commercial Communications
Bus & Motor
STARLINK, Unknown motor
Mass
290 kg wet, ~270 kg dry
Launch date (UTC)
2021-11-13 (5 years ago)
Launch vehicle
FALCON 9
Launch site
Air Force Eastern Test Range (AFETR)
Object type
Payload
Rocket body
Debris
Shape & HBR
Box + 1 Pan, 10.1 m
Radar Cross Section
13.562 m², Large (>1 m²)

Expand to show TLE details & history
Last TLE update: 1 week ago

TLE from 1 week ago
0 STARLINK-3150
1 49452U 21104AW  26154.78174455  .00000132  00000-0  26401-4 0  9994
2 49452  53.1819 192.6644 0002190  37.4560 322.6584 15.08834354251775
Epoch: 2026-06-03T18:45Z
TLE epoch observation values (Epoch: 2026-06-03T18:45:42.729Z)
Latitude
-0°
Longitude
19.00093°
Altitude
539.45 km
Speed
7.595 km/s
True Right ascension
12h 50m 39s
True Declination
0° 00' 00"
Sunlit
Object was in full shadow at epoch
Visualization orbit readout
Latitude
Unknown
Longitude
Unknown
Altitude
Unknown
Speed
Unknown
Apparent Right ascension
Unknown
Apparent Declination
Unknown
Sunlit
N/A
Visualization observer readout
Local Sidereal Time
14:53:24
Azimuth
Unknown
Elevation
Unknown
Doppler factor
Unknown
Orbital elements
Apogee altitude
541.526 km
Perigee altitude
538.496 km
Semi-major axis
6,918.148 km
Eccentricity
0.00022
Inclination
53.1819°
RAAN
192.6644°
Arg. of periapsis
37.456°
True anomaly
322.64317°
Mean anomaly
322.6584°
Eccentric anomaly
322.65079°
Mean motion
3.77188 °/min
Orbital period
95.44 mins
BSTAR
0.000026401
Loading maneuver chart data...
Computing Atmospheric mass density...
Loading historical data...
Loading historical data...
Loading historical data...
Loading historical data...
Loading historical data...
Loading historical data...
Loading historical data...

Documentation

Showing up to 5 results
|